YU4PTT-8 Weather Reports


Display with metric or nautical units.
time (UTC)temp
F
wind
direction
speed
MPH
gust
MPH
rain 1hr
in
rain 24hr
in
rain mn
in
humidity
%
barometer
mb
20260506082321 66 158 5.0 5.0 0.00 0.00 0.00 48 1004.8
20260506070321 62 338 2.0 2.0 0.00 0.00 0.00 53 1004.8
20260506062322 64 225 2.0 2.0 0.00 0.00 0.00 50 1004.7
20260506050351 58 158 0.0 0.0 0.00 0.00 0.00 54 1004.7
20260506042352 53 158 1.0 1.0 0.00 0.00 0.00 60 1004.7
20260506035321 53 158 1.0 1.0 0.00 0.00 0.00 56 1004.7
20260506031321 53 180 2.0 2.0 0.00 0.00 0.00 54 1004.5
20260506023321 54 158 3.0 3.0 0.00 0.00 0.00 51 1004.5
20260506015321 54 180 0.0 0.0 0.00 0.00 0.00 48 1004.2
20260506011351 54 180 2.0 2.0 0.00 0.00 0.00 46 1004.0
20260506004321 55 112 1.0 1.0 0.00 0.00 0.00 46 1004.0
20260506000353 55 202 3.0 3.0 0.00 0.00 0.00 45 1003.9
20260505233321 55 180 1.0 1.0 0.00 0.00 0.00 43 1004.2
20260505225351 55 158 4.0 4.0 0.00 0.00 0.00 44 1004.5
20260505222321 55 68 1.0 1.0 0.00 0.00 0.00 44 1004.6
20260505214321 56 112 1.0 1.0 0.00 0.00 0.00 42 1004.8
20260505210351 56 90 1.0 1.0 0.00 0.00 0.00 41 1004.7
20260505203322 57 158 0.0 0.0 0.00 0.00 0.00 40 1004.7
20260505195321 57 112 0.0 0.0 0.00 0.00 0.00 42 1004.3
20260505191321 58 68 0.0 0.0 0.00 0.00 0.00 43 1004.2
20260505183321 60 112 0.0 0.0 0.00 0.00 0.00 44 1004.0
20260505175351 60 158 0.0 0.0 0.00 0.00 0.00 50 1003.7
20260505172321 62 158 0.0 0.0 0.00 0.00 0.00 47 1003.6
20260505164321 65 158 0.0 0.0 0.00 0.00 0.00 47 1003.5
20260505160351 65 22 0.0 0.0 0.00 0.00 0.00 44 1003.6
20260505153321 65 22 0.0 0.0 0.00 0.00 0.00 43 1003.7
20260505123321 69 90 1.0 1.0 0.00 0.00 0.00 42 1005.3
20260505115351 67 68 1.0 1.0 0.00 0.00 0.00 43 1005.6
20260505112321 67 45 6.0 6.0 0.00 0.00 0.00 43 1005.7
20260505100321 66 22 3.0 3.0 0.00 0.00 0.00 44 1006.1
20260505092321 66 68 4.0 4.0 0.00 0.00 0.00 43 1006.2